Weather History for Pellston, MI

Change the Weather History Date:

Thursday, March 21, 2013

  Actual Average Record
Temperature  
Mean Temperature 24 °F -  
Max Temperature 27 °F 37 °F 84 °F (2012)
Min Temperature 21 °F 19 °F -9 °F (1988)
Degree Days  
Heating Degree Days 41    
Moisture  
Dew Point 18 °F    
Average Humidity 76    
Maximum Humidity 84    
Minimum Humidity 63    
Precipitation  
Precipitation 0.00 in - - ()
Sea Level Pressure  
Sea Level Pressure 29.86 in    
Wind  
Wind Speed 11 mph (NW)    
Max Wind Speed 20 mph    
Max Gust Speed 24 mph    
Visibility 7 miles    
Events Snow    
Averages and records for this station are not official NWS values.
T = Trace of Precipitation, MM = Missing Value Source: NWS Daily Summary

Daily Weather History Graph

Daily Weather History Graph

Search for Another Location

Airport:

Trip Planner

Search our weather history database for the weather conditions in past years. The results will help you decide how hot, cold, wet, or windy it might be!

Date:

Astronomy

Mar. 21, 2013 Rise Set
Actual Time 7:39 AM EDT 7:53 PM EDT
Civil Twilight 7:10 AM EDT 8:23 PM EDT
Nautical Twilight 6:35 AM EDT 8:57 PM EDT
Astronomical Twilight 5:59 AM EDT 9:33 PM EDT
Moon 2:08 PM EDT (3/21) 4:15 AM EDT (3/21)
Length of Visible Light 13h 12m
Length of Day
12h 13m
Waxing Gibbous, 68% of the Moon is Illuminated
Mar 21
Waxing Gibbous
Mar 27
Full
Apr 3
Last Quarter
Apr 10
New
Apr 18
First Quarter

Hourly Weather History & Observations

Time (EDT) Temp. Windchill Dew Point Humidity Pressure Visibility Wind Dir Wind Speed Gust Speed Precip Events Conditions
12:54 AM 26.1 °F 16.8 °F 21.9 °F 84% 29.82 in 5.0 mi WNW 9.2 mph - 0.00 in Snow Light Snow
1:13 AM 26.6 °F 19.1 °F 21.2 °F 80% 29.78 in 8.0 mi WNW 6.9 mph - 0.00 in   Overcast
1:23 AM 26.6 °F 19.1 °F 21.2 °F 80% 29.78 in 8.0 mi NW 6.9 mph - 0.00 in   Overcast
1:49 AM 26.6 °F 18.2 °F 21.2 °F 80% 29.79 in 9.0 mi WNW 8.1 mph - 0.00 in   Overcast
2:04 AM 26.6 °F 16.8 °F 21.2 °F 80% 29.78 in 10.0 mi NW 10.4 mph - N/A   Overcast
2:18 AM 26.6 °F 17.5 °F 21.2 °F 80% 29.79 in 10.0 mi NW 9.2 mph - N/A   Overcast
2:54 AM 27.0 °F 17.3 °F 21.9 °F 81% 29.83 in 10.0 mi NNW 10.4 mph - 0.00 in   Overcast
3:08 AM 26.6 °F 17.5 °F 21.2 °F 80% 29.79 in 10.0 mi NNW 9.2 mph - N/A   Overcast
4:54 AM 25.0 °F 14.8 °F 19.0 °F 78% 29.83 in 7.0 mi NNW 10.4 mph - 0.00 in Snow Light Snow
5:10 AM 24.8 °F 15.3 °F 19.4 °F 80% 29.80 in 4.0 mi NW 9.2 mph - 0.00 in Snow Light Snow
5:54 AM 24.1 °F 14.4 °F 19.0 °F 81% 29.84 in 5.0 mi NW 9.2 mph - 0.00 in Snow Light Snow
6:54 AM 24.1 °F 13.1 °F 19.0 °F 81% 29.85 in 10.0 mi NNW 11.5 mph - 0.00 in   Overcast
7:51 AM 24.8 °F 14.6 °F 19.4 °F 80% 29.82 in 1.8 mi NW 10.4 mph - 0.00 in Snow Light Snow
7:54 AM 24.1 °F 14.4 °F 19.9 °F 84% 29.86 in 1.0 mi NW 9.2 mph - 0.00 in Snow Light Snow
8:12 AM 24.8 °F 15.3 °F 19.4 °F 80% 29.82 in 2.0 mi NW 9.2 mph - 0.00 in Snow Light Snow
8:26 AM 24.8 °F 14.6 °F 19.4 °F 80% 29.83 in 2.5 mi NW 10.4 mph - 0.00 in Snow Light Snow
8:38 AM 24.8 °F 14.6 °F 19.4 °F 80% 29.83 in 1.2 mi NNW 10.4 mph - 0.00 in Snow Light Snow
8:46 AM 24.8 °F 14.6 °F 19.4 °F 80% 29.83 in 1.2 mi NNW 10.4 mph - 0.00 in Snow Light Snow
8:54 AM 24.1 °F 14.4 °F 19.0 °F 81% 29.87 in 1.8 mi NNW 9.2 mph - 0.00 in Snow Light Snow
9:43 AM 24.8 °F 14.0 °F 17.6 °F 74% 29.84 in 2.5 mi North 11.5 mph - 0.00 in Snow Light Snow
9:51 AM 24.8 °F 15.3 °F 17.6 °F 74% 29.84 in 7.0 mi North 9.2 mph - 0.00 in Snow Light Snow
9:54 AM 25.0 °F 14.8 °F 18.0 °F 75% 29.87 in 8.0 mi North 10.4 mph - 0.00 in   Overcast
10:12 AM 24.8 °F 12.9 °F 17.6 °F 74% 29.84 in 4.0 mi North 13.8 mph - 0.00 in Snow Light Snow
10:22 AM 24.8 °F 13.4 °F 17.6 °F 74% 29.85 in 1.8 mi North 12.7 mph - 0.00 in Snow Light Snow
10:30 AM 24.8 °F 13.4 °F 17.6 °F 74% 29.85 in 3.0 mi NNW 12.7 mph - 0.00 in Snow Light Snow
10:54 AM 24.1 °F 12.0 °F 16.0 °F 71% 29.88 in 9.0 mi NNW 13.8 mph - 0.00 in Snow Light Snow
11:28 AM 24.8 °F 12.4 °F 15.8 °F 69% 29.85 in 10.0 mi NNW 15.0 mph - 0.00 in   Overcast
11:54 AM 25.0 °F 10.9 °F 14.0 °F 63% 29.88 in 10.0 mi NNW 19.6 mph 24.2 mph 0.00 in   Overcast
12:54 PM 25.0 °F 12.2 °F 16.0 °F 69% 29.88 in 7.0 mi NW 16.1 mph - N/A   Overcast
1:54 PM 25.0 °F 11.3 °F 16.0 °F 69% 29.89 in 10.0 mi NW 18.4 mph - 0.00 in   Overcast
2:54 PM 25.0 °F 11.3 °F 16.0 °F 69% 29.90 in 10.0 mi NW 18.4 mph - 0.00 in   Overcast
3:54 PM 25.0 °F 11.3 °F 15.1 °F 66% 29.90 in 10.0 mi NW 18.4 mph - 0.00 in   Overcast
4:54 PM 25.0 °F 12.2 °F 16.0 °F 69% 29.91 in 10.0 mi WNW 16.1 mph 24.2 mph N/A   Overcast
5:54 PM 25.0 °F 13.6 °F 16.0 °F 69% 29.91 in 9.0 mi NW 12.7 mph - 0.00 in   Overcast
6:54 PM 25.0 °F 13.6 °F 17.1 °F 72% 29.91 in 9.0 mi NW 12.7 mph 23.0 mph N/A   Overcast
7:54 PM 25.0 °F 13.1 °F 17.1 °F 72% 29.92 in 10.0 mi NW 13.8 mph - N/A   Overcast
8:54 PM 24.1 °F 11.0 °F 16.0 °F 71% 29.94 in 10.0 mi NW 16.1 mph 24.2 mph N/A   Overcast
9:54 PM 23.0 °F 9.6 °F 15.1 °F 72% 29.94 in 10.0 mi NW 16.1 mph - N/A   Overcast
10:33 PM 21.2 °F 8.3 °F 14.0 °F 74% 29.91 in 10.0 mi NW 13.8 mph - N/A   Overcast
10:54 PM 21.9 °F 9.8 °F 14.0 °F 72% 29.95 in 10.0 mi NW 12.7 mph - N/A   Mostly Cloudy
11:54 PM 21.9 °F 9.2 °F 15.1 °F 75% 29.94 in 10.0 mi NW 13.8 mph - N/A   Partly Cloudy